Location: Napier
(39.4830°S, 176.9170°E)
Time: 22:47:38
(UTC+13:00)

Cosmos 2315 Rocket - Pass Details

Date: 24 January 2019
Orbit: 967 x 1001 km, 82.9° (Epoch: 21 February)

Event Time Altitude Azimuth Distance (km) Brightness Sun altitude
Rises 21:56:59 0° 189° (S) 3,745 7.9 -13.9°
Reaches altitude 10° 21:59:33 10° 190° (S) 2,784 7.1 -14.3°
Maximum altitude 22:05:56 78° 274° (W) 1,019 4.2 -15.2°
Drops below altitude 10° 22:12:11 10° 359° (N) 2,726 6.0 -16.1°
Enters shadow 22:12:15 10° 359° (N) 2,749 6.0 -16.1°
